Regional Weather Roundup
Issued by NWS

Home | Current Version | Previous Version | Graphics & Text | Print | Product List | Glossary On
Versions: 1 2 3 4 5 6 7 8 9 10 11 12 13 14 15 16 17 18 19 20 21 22 23 24 25 26 27 28 29 30 31 32 33 34 35 36 37 38 39 40 41 42 43 44 45 46 47 48 49 50
000
ASUS43 KLOT 010400
RWRIL

ILLINOIS REGIONAL WEATHER ROUNDUP
NATIONAL WEATHER SERVICE CHICAGO/ROMEOVILLE IL
1100 PM CDT FRI JUL 31 2015

NOTE: "FAIR" INDICATES FEW OR NO CLOUDS BELOW 12,000 FEET WITH NO
SIGNIFICANT WEATHER AND/OR OBSTRUCTIONS TO VISIBILITY.

* THESE STATIONS ARE NOT UNDER NWS QUALITY CONTROL. THEY ALSO MAY NOT
  REPORT WEATHER SUCH AS PRECIPITATION OR FOG.

ILZ001-002-007-009-015-016-024-010500-
NORTHWEST ILLINOIS

CITY           SKY/WX    TMP DP  RH WIND       PRES   REMARKS
MOLINE         CLEAR     66  59  78 W3        30.03R
STERLING*      CLEAR     66  55  68 W5        30.00R
$$

ILZ003-004-008-010-011-017-018-010500-
NORTH CENTRAL ILLINOIS

CITY           SKY/WX    TMP DP  RH WIND       PRES   REMARKS
ROCKFORD       PTCLDY    67  53  61 CALM      30.02R
$$

ILZ005-006-012>014-019>023-010500-
NORTHEAST ILLINOIS

CITY           SKY/WX    TMP DP  RH WIND       PRES   REMARKS
CHICAGO-OHARE  CLEAR     72  52  49 NW6       29.97S
CHICAGO-MIDWAY CLEAR     75  50  41 W7        29.97S
AURORA         CLEAR     62  55  77 NW6       30.00R
WAUKEGAN       CLEAR     67  53  61 W3        29.97R
DUPAGE AIRPORT CLEAR     69  53  56 W7        29.99R
WHEELING       CLEAR     72  51  47 NW6       29.98S
NORTHERLY ISL    N/A     77  49  37 NW6         N/A
$$

LMZ740>746-010500-
SOUTHERN LAKE MICHIGAN

STATION/POSITION SKY/WX   TEMP    WIND        PRES    VSBY  WAVE
                          AIR SEA DIR/SP/G                  HT/PER
                          (F)     (DEG/KT/KT) (MB)    (MI)  (FT/S)
HARRISON CRIB              77     310/ 11/ 13   N/A
BURNHAM HARBOR             77     280/  5/ 11   N/A
CALUMET HARBOR             77     290/  3/  7   N/A
BURNS HARBOR               75     320/  7/  8 1015.2R
MICHIGAN CITY              75     290/ 11/ 12   N/A
MICHIGAN CITY 6N           76 74  320/ 10/ 12   N/A           2/ 5
ST. JOSEPH                 74 74  320/  8/  8   N/A           2/ 5
$$

ILZ025>027-034>036-040-047-049-050-058-095>099-010500-
WEST-CENTRAL ILLINOIS

CITY           SKY/WX    TMP DP  RH WIND       PRES   REMARKS
QUINCY         PTCLDY    75  68  78 CALM      30.05R
MACOMB*        CLEAR     68  65  88 N5        30.07R
$$

ILZ028>032-037-038-041>044-048-051>054-059>061-010500-
CENTRAL ILLINOIS

CITY           SKY/WX    TMP DP  RH WIND       PRES   REMARKS
DECATUR        CLEAR     77  61  57 W5        30.03R
PEORIA         CLEAR     75  59  57 NW5       30.03S
SPRINGFIELD    MOCLDY    74  70  87 W6        30.04R
TAYLORVILLE    NOT AVBL
$$

ILZ033-039-045-046-055>057-062-063-010500-
EAST-CENTRAL ILLINOIS

CITY           SKY/WX    TMP DP  RH WIND       PRES   REMARKS
CHAMPAIGN      CLEAR     69  62  78 NW5       30.02S
MATTOON        CLEAR     74  62  66 W3        30.02R
$$

ILZ079-100>102-010500-
SOUTHWEST ILLINOIS

CITY           SKY/WX    TMP DP  RH WIND       PRES   REMARKS
BELLEVILLE     CLEAR     73  73  98 W2        30.04R
CAHOKIA*       CLEAR     74  67  78 CALM      30.04R
$$

ILZ064>066-069>071-074>076-080>082-084>086-088>090-092>094-010500-
SOUTH-CENTRAL ILLINOIS

CITY           SKY/WX    TMP DP  RH WIND       PRES   REMARKS
CARBONDALE     CLEAR     75  72  90 CALM      30.05R
MT. VERNON     CLEAR     70  64  83 CALM      30.05R
SALEM*         CLEAR     71  68  89 CALM      30.05R
$$

ILZ067-068-072-073-078-083-087-091-010500-
SOUTHEAST ILLINOIS

CITY           SKY/WX    TMP DP  RH WIND       PRES   REMARKS
LAWRENCEVILLE  PTCLDY    75  69  81 CALM      30.01F
FLORA*         PTCLDY    73  68  84 W3        30.03S
HARRISBURG*    CLEAR     73  71  95 CALM      30.05R
ROBINSON*      PTCLDY    69  67  94 CALM      30.02S
CARMI*         CLEAR     73  67  82 CALM      30.02S
$$

ABBREVIATIONS USED IN REMARKS
   TC - TEMPERATURE IN CELSIUS
  WCI - WIND CHILL INDEX
   HX - HEAT INDEX
  VSB - VISIBILITY
$$




USA.gov is the U.S. government's official web portal to all federal, state and local government web resources and services.